[Date Prev][Date Next][Thread Prev][Thread Next] - [Date Index][Thread Index][Author Index]

2 Line ISS Keps 12-11



ISS
1 25544U 98067A   02345.17092766  .00029089  00000-0  39655-3 0  4615
2 25544  51.6372 244.4603 0003245 254.0354 266.7978 15.57265985231572


----
Via the sarex mailing list at AMSAT.ORG courtesy of AMSAT-NA.
To unsubscribe, send "unsubscribe sarex" to Majordomo@amsat.org



AMSAT Top AMSAT Home